Location: Fort Wayne
(41.1310°N, 85.1290°W)
Time: 07:39:26
(UTC-05:00)

ISS - Visible Passes

Search period start: 10 December 2016 00:00
Search period end: 20 December 2016 00:00
Orbit: 401 x 410 km, 51.6° (Epoch: 10 December)

Date Brightness Start Highest point End Pass type
(mag) Time Alt. Az. Time Alt. Az. Time Alt. Az.
10 Dec -1.0 18:07:23 10° NW 18:09:07 14° N 18:10:48 10° NNE visible
11 Dec -1.0 18:52:17 10° NNW 18:53:35 14° N 18:53:35 14° N visible
12 Dec -1.1 18:00:15 10° NNW 18:02:02 14° N 18:03:44 10° NE visible
13 Dec -1.5 18:44:33 10° NNW 18:46:37 20° N 18:46:37 20° N visible
14 Dec -1.4 17:52:40 10° NNW 17:54:52 16° NNE 17:56:54 11° NE visible
14 Dec -0.8 19:28:39 10° NW 19:29:35 17° NW 19:29:35 17° NW visible
15 Dec -2.5 18:36:44 10° NW 18:39:47 33° NNE 18:40:00 33° NE visible
16 Dec -1.9 17:44:50 10° NW 17:47:34 23° NNE 17:50:16 10° ENE visible
16 Dec -2.0 19:21:01 10° WNW 19:23:18 39° WNW 19:23:18 39° WNW visible
17 Dec -3.4 18:28:56 10° NW 18:32:14 69° NNE 18:34:09 23° ESE visible
17 Dec 0.3 20:06:38 10° W 20:06:53 11° WSW 20:06:53 11° WSW visible
18 Dec -1.1 19:13:41 10° WNW 19:16:27 25° SW 19:18:06 17° S visible
19 Dec -2.3 18:21:18 10° WNW 18:24:29 48° SW 18:27:40 10° SE visible
